Location: D�derode
(51.8092°N, 10.1065°E)
Time: 01:27:58
(UTC+00:00)

Cosmos 1812 - Pass Details

Date: 22 April 2021
Orbit: 516 x 519 km, 82.5° (Epoch: 10 May)

Event Time Altitude Azimuth Distance (km) Brightness Sun altitude
Exits shadow 00:02:21 32° 311° (NW) 906 4.1 -25.3°
Drops below altitude 10° 00:05:17 10° 355° (N) 1,767 6.3 -25.2°
Sets 00:07:34 0° 5° (N) 2,660 7.7 -25.1°
